Regional Weather Roundup
Issued by NWS

Home | Current Version | Previous Version | Text Only | Print | Product List | Glossary Off
Versions: 1 2 3 4 5 6 7 8 9 10 11 12 13 14 15 16 17 18 19 20 21 22 23 24 25 26 27 28

000
ASUS45 KBOI 300910
RWRID

IDAHO REGIONAL WEATHER ROUNDUP
NATIONAL WEATHER SERVICE BOISE ID
300 AM MDT SAT APR 30 2016

NOTE: "FAIR" INDICATES FEW OR NO CLOUDS BELOW 12000 FEET
WITH NO SIGNIFICANT WEATHER AND/OR OBSTRUCTIONS TO VISIBILITY

IDZ012-014-301000-
SOUTHWEST IDAHO


CITY           SKY/WX    TMP DP  RH WIND       PRES   REMARKS
BOISE          CLEAR     45  37  73 NW17      29.97R
CALDWELL       CLEAR     45  38  76 W14       30.01R
MOUNTAIN HOME  CLEAR     44  37  77 NW20G26   29.94R
$$

IDZ016-017-301000-
SOUTHCENTRAL IDAHO


CITY           SKY/WX    TMP DP  RH WIND       PRES   REMARKS
BURLEY         LGT RAIN  43  38  82 W8G21     29.91R
JEROME         CLOUDY    41  38  89 SW6       29.93R
TWIN FALLS     CLOUDY    41  36  82 SW12      29.94S
$$

IDZ019>023-301000-
SOUTHEAST IDAHO


CITY           SKY/WX    TMP DP  RH WIND       PRES   REMARKS
IDAHO FALLS    CLOUDY    34  32  92 CALM      29.93R
POCATELLO      PTCLDY    38  35  89 CALM      29.92R
REXBURG        CLOUDY    39  36  89 NE3       29.92S
$$

IDZ006-010-011-018-031-032-301000-
CENTRAL IDAHO MOUNTAINS


CITY           SKY/WX    TMP DP  RH WIND       PRES   REMARKS
MCCALL         CLEAR     39  31  72 N10G16    30.00S WCI  32
HAILEY         CLEAR     36  32  87 NW6       29.95S WCI  31
STANLEY          N/A     30  25  81 CALM      30.00R
SALMON         CLOUDY    37  32  81 CALM      30.01S
CHALLIS        MOCLDY    37  28  70 NW8       29.98S WCI  31
$$

IDZ002-004-006-007-026-301000-
NORTHERN IDAHO


CITY           SKY/WX    TMP DP  RH WIND       PRES   REMARKS
LEWISTON       LGT RAIN  49  47  93 NE3       30.09S
LOWELL           N/A     46  44  93 CALM      30.12R
COEUR D`ALENE  CLOUDY    46  45  93 CALM      30.07S
MULLAN PASS    CLOUDY    31  30  96 NW3       30.05S
$$




USA.gov is the U.S. government's official web portal to all federal, state and local government web resources and services.